Weather History for Tetuan, Morocco

Change the Weather History Date:

Tuesday, September 17, 2013

  Actual Average Record
Temperature  
Mean Temperature 78 °F -  
Max Temperature 87 °F 75 °F 88 °F (2014)
Min Temperature 70 °F 63 °F 57 °F (2006)
Cooling Degree Days 14    
Growing Degree Days 28 (Base 50)    
Moisture  
Dew Point 59 °F    
Average Humidity 55    
Maximum Humidity 69    
Minimum Humidity 35    
Precipitation  
Precipitation 0.00 in - - ()
Sea Level Pressure  
Sea Level Pressure 29.94 in    
Wind  
Wind Speed 12 mph ()    
Max Wind Speed 21 mph    
Max Gust Speed 33 mph    
Visibility 2.4 miles    
Events      
Averages and records for this station are not official NWS values.
T = Trace of Precipitation, MM = Missing Value Source: Averaged Metar Reports

Daily Weather History Graph

Daily Weather History Graph

Search for Another Location

Airport:

Trip Planner

Search our weather history database for the weather conditions in past years. The results will help you decide how hot, cold, wet, or windy it might be!

Date:

Astronomy

Sep. 17, 2013 Rise Set
Actual Time 7:05 AM WEST 7:25 PM WEST
Civil Twilight 6:39 AM WEST 7:50 PM WEST
Nautical Twilight 6:10 AM WEST 8:20 PM WEST
Astronomical Twilight 5:39 AM WEST 8:51 PM WEST
Moon 6:01 PM WEST (9/17) 4:47 AM WEST (9/17)
Length of Visible Light 13h 10m
Length of Day
12h 19m
Waxing Gibbous, 95% of the Moon is Illuminated
Sep 17
Waxing Gibbous
Sep 19
Full
Sep 27
Last Quarter
Oct 5
New
Oct 12
First Quarter

Hourly Weather History & Observations

Time (WEST) Temp. Heat Index Dew Point Humidity Pressure Visibility Wind Dir Wind Speed Gust Speed Precip Events Conditions
12:00 AM 75.2 °F - 59.0 °F 57% 29.95 in 1.0 mi WSW 9.2 mph - N/A   Unknown
1:00 AM 72 °F - 61 °F 60% 29.95 in 1 mi SW 17.3 mph - -  
1:00 AM 73.4 °F - 60.8 °F 65% 29.95 in 0.9 mi SW 17.3 mph - N/A   Unknown
2:00 AM 73.4 °F - 57.2 °F 57% 29.92 in 1.1 mi West 17.3 mph - N/A   Unknown
3:00 AM 73.4 °F - 59.0 °F 61% 29.92 in 1.0 mi West 10.4 mph - N/A   Unknown
4:00 AM 71 °F - 61 °F 63% 29.94 in 1 mi West 18.4 mph - -  
4:00 AM 71.6 °F - 60.8 °F 69% 29.92 in 1.1 mi West 18.4 mph - N/A   Unknown
5:00 AM 71.6 °F - 59.0 °F 64% 29.92 in 1.1 mi Variable 5.8 mph 17.3 mph N/A   Unknown
6:00 AM 71.6 °F - 59.0 °F 64% 29.92 in 1.1 mi West 10.4 mph 24.2 mph N/A   Unknown
7:00 AM 71 °F - 59 °F 58% 29.94 in 6 mi WSW 20.7 mph - -   Scattered Clouds
7:00 AM 71.6 °F - 59.0 °F 64% 29.92 in - WSW 20.7 mph 33.4 mph N/A   Clear
8:00 AM 71.6 °F - 59.0 °F 64% 29.95 in - WSW 18.4 mph 29.9 mph N/A   Clear
9:00 AM 75.2 °F - 59.0 °F 57% 29.95 in - West 9.2 mph - N/A   Clear
10:00 AM 77.0 °F - 59.0 °F 54% 29.95 in - West 13.8 mph - N/A   Clear
11:00 AM 80.6 °F 80.8 °F 57.2 °F 45% 29.98 in - WSW 8.1 mph - N/A   Clear
12:00 PM 80.6 °F 81.1 °F 59.0 °F 48% 29.98 in - WNW 5.8 mph - N/A   Clear
1:00 PM 84.2 °F 83.8 °F 59.0 °F 42% 29.95 in - West 13.8 mph 25.3 mph N/A   Clear
2:00 PM 86.0 °F 84.9 °F 57.2 °F 37% 29.95 in - WNW 13.8 mph - N/A   Clear
3:00 PM 86.0 °F 85.4 °F 59.0 °F 40% 29.92 in - WNW 15.0 mph - N/A   Clear
4:00 PM 84 °F - 60 °F 35% 29.94 in 6 mi WNW 12.7 mph - -   Clear
4:00 PM 84.2 °F 84.4 °F 60.8 °F 45% 29.92 in - WNW 12.7 mph - N/A   Clear
5:00 PM 82.4 °F 82.9 °F 60.8 °F 48% 29.92 in - WNW 6.9 mph - N/A   Clear
6:00 PM 80.6 °F 81.1 °F 59.0 °F 48% 29.92 in - Variable 5.8 mph - N/A   Clear
7:00 PM 78 °F - 59 °F 42% 29.94 in 6 mi North 2.3 mph - -   Clear
7:00 PM 77.0 °F - 59.0 °F 54% 29.92 in - Variable 2.3 mph - N/A   Clear
9:00 PM 73.4 °F - 59.0 °F 61% 29.92 in - Variable 6.9 mph 19.6 mph N/A   Clear
10:00 PM 72 °F - 60 °F 56% 29.96 in 6 mi WSW 17.3 mph - -   Clear
10:00 PM 71.6 °F - 59.0 °F 64% 29.95 in - WSW 17.3 mph 31.1 mph N/A   Clear
11:00 PM 71.6 °F - 59.0 °F 64% 29.95 in 0.9 mi West 11.5 mph 23.0 mph N/A   Unknown